Regional Weather Roundup
Issued by NWS

Home | Current Version | Previous Version | Graphics & Text | Print | Product List | Glossary Off
Versions: 1 2 3 4 5 6 7 8 9 10 11 12 13 14 15 16 17 18 19 20 21 22 23 24 25 26 27 28 29 30 31 32 33 34 35 36 37 38 39 40 41 42 43 44 45 46 47 48 49 50

000
ASUS43 KTOP 021359
RWRKS

WEATHER ROUNDUP FOR KANSAS
NATIONAL WEATHER SERVICE GOODLAND KS
900 AM CDT TUE SEP 02 2014

NOTE:  "FAIR" INDICATES FEW OR NO CLOUDS BELOW 12,000 FEET WITH NO
SIGNIFICANT WEATHER AND/OR OBSTRUCTIONS TO VISIBILITY.

KSZ001>006-013>018-027>032-041>047-021500-
NORTHWEST KANSAS

CITY           SKY/WX    TMP DP  RH WIND       PRES   REMARKS
GOODLAND       FOG       60  60 100 S14       30.11S VSB 1/2
HAYS           SUNNY     64  57  77 NE6       30.03F
HILL CITY      SUNNY     63  57  81 W3        30.05F
RUSSELL        SUNNY     67  60  78 CALM      30.01S
$$

KSZ061>065-074>080-084>089-021500-
SOUTHWEST KANSAS

CITY           SKY/WX    TMP DP  RH WIND       PRES   REMARKS
DODGE CITY     FOG       66  65  96 NE14      30.02R VSB<1/4
ELKHART          N/A     65  62  90 N6          N/A
GARDEN CITY    CLOUDY    66  64  93 NE12      30.04R FOG
GREAT BEND     CLOUDY    66  61  82 NE7       30.01F
LIBERAL        CLOUDY    70  63  78 NE7       30.04R
PRATT          CLOUDY    68  66  94 NE12      30.00S FOG
$$

KSZ066>073-081>083-090>101-021500-
SOUTHEAST KANSAS

CITY           SKY/WX    TMP DP  RH WIND       PRES   REMARKS
CHANUTE        CLOUDY    69  66  90 S3        29.98R
COFFEYVILLE    LGT RAIN  67  66  97 S12G22    29.93F
HUTCHINSON     CLOUDY    71  67  87 NE6       29.99R FOG
NEWTON         CLOUDY    68  64  88 E6        30.03R VSB 1/2
PARSONS        CLOUDY    68  66  93 NW5       29.99R
WICHITA INTL   CLOUDY    73  69  87 NE8       29.97S
WICHITA JABRA  CLOUDY    71  69  93 E5        29.98R
WICHITA MCCONL CLOUDY    72  72 100 NE6       29.98S
WINFIELD       CLOUDY    70  69  97 SE8       29.98R
$$

KSZ007>012-019>026-033>040-048>060-102>105-021500-
NORTHEAST KANSAS

CITY           SKY/WX    TMP DP  RH WIND       PRES   REMARKS
CONCORDIA      SUNNY     65  61  87 N5        30.01S
EMPORIA        CLOUDY    70  70 100 NE6       29.98S FOG
LAWRENCE       FOG      N/A N/A N/A CALM      29.99R VSB 1/4
MANHATTAN      PTSUNNY   66  64  93 CALM      29.99R
OLATHE IND     CLOUDY    69  69 100 CALM      29.99R FOG
OLATHE EXE     CLOUDY    70  68  94 N3        29.98R FOG
SALINA         PTSUNNY   68  63  84 NW3       30.00S
TOPEKA BILLARD FOG       68  68 100 NW3       29.99R VSB 1/2
TOPEKA FORBES  FOG       68  68 100 CALM      29.99R VSB 1/4
$$


USA.gov is the U.S. government's official web portal to all federal, state and local government web resources and services.